DO7CRZ-12 Weather Reports


Display with metric or nautical units.
time (UTC)temp
F
wind
direction
speed
MPH
gust
MPH
rain 1hr
in
rain 24hr
in
rain mn
in
humidity
%
barometer
mb
20260504172715 79 0.0 0.0 0.00 0.00 0.00 34 1011.1
20260504171727 80 0.0 0.0 0.00 0.00 0.00 32 1011.2
20260504170725 81 0.0 0.0 0.00 0.00 0.00 30 1011.1
20260504150720 82 0.0 0.0 0.00 0.00 0.00 25 1011.3
20260504140719 82 0.0 0.0 0.00 0.00 0.00 23 1011.6
20260504130716 86 0.0 0.0 0.00 0.00 0.00 24 1012.1
20260504081725 76 0.0 0.0 0.00 0.00 0.00 32 1013.8
20260504050715 63 0.0 0.0 0.00 0.00 0.00 44 1012.9
20260504045727 63 0.0 0.0 0.00 0.00 0.00 44 1012.8
20260504044724 62 0.0 0.0 0.00 0.00 0.00 45 1012.8
20260504043722 62 0.0 0.0 0.00 0.00 0.00 45 1012.9
20260504042718 62 0.0 0.0 0.00 0.00 0.00 44 1013.0
20260504041716 62 0.0 0.0 0.00 0.00 0.00 45 1013.0
20260504040728 62 0.0 0.0 0.00 0.00 0.00 45 1013.0
20260504035725 61 0.0 0.0 0.00 0.00 0.00 45 1012.9
20260504033720 62 0.0 0.0 0.00 0.00 0.00 45 1013.0
20260504032716 62 0.0 0.0 0.00 0.00 0.00 44 1012.9
20260504031729 62 0.0 0.0 0.00 0.00 0.00 44 1012.9
20260504030726 62 0.0 0.0 0.00 0.00 0.00 44 1012.9
20260504025723 63 0.0 0.0 0.00 0.00 0.00 42 1012.9
20260504024720 63 0.0 0.0 0.00 0.00 0.00 42 1012.7
20260504022730 63 0.0 0.0 0.00 0.00 0.00 42 1012.4
20260504021727 64 0.0 0.0 0.00 0.00 0.00 41 1012.6
20260504020724 64 0.0 0.0 0.00 0.00 0.00 41 1012.6
20260504015721 64 0.0 0.0 0.00 0.00 0.00 40 1012.6
20260504014718 65 0.0 0.0 0.00 0.00 0.00 39 1012.6
20260504012728 65 0.0 0.0 0.00 0.00 0.00 38 1012.2
20260504011725 65 0.0 0.0 0.00 0.00 0.00 38 1012.0
20260504005720 66 0.0 0.0 0.00 0.00 0.00 38 1012.1
20260504004716 66 0.0 0.0 0.00 0.00 0.00 37 1012.0
20260504003729 66 0.0 0.0 0.00 0.00 0.00 36 1012.0
20260504002726 66 0.0 0.0 0.00 0.00 0.00 37 1011.8
20260504001723 66 0.0 0.0 0.00 0.00 0.00 38 1011.7
20260504000720 66 0.0 0.0 0.00 0.00 0.00 38 1011.4
20260503234730 67 0.0 0.0 0.00 0.00 0.00 36 1011.4
20260503232724 68 0.0 0.0 0.00 0.00 0.00 35 1011.3
20260503231721 68 0.0 0.0 0.00 0.00 0.00 35 1011.4
20260503230718 68 0.0 0.0 0.00 0.00 0.00 35 1011.4
20260503225716 68 0.0 0.0 0.00 0.00 0.00 34 1011.4
20260503224728 68 0.0 0.0 0.00 0.00 0.00 34 1011.5
20260503223725 68 0.0 0.0 0.00 0.00 0.00 34 1011.5
20260503221719 69 0.0 0.0 0.00 0.00 0.00 34 1011.8
20260503215729 69 0.0 0.0 0.00 0.00 0.00 34 1011.6
20260503214726 69 0.0 0.0 0.00 0.00 0.00 34 1011.7
20260503213723 69 0.0 0.0 0.00 0.00 0.00 34 1011.6
20260503212722 69 0.0 0.0 0.00 0.00 0.00 34 1011.6
20260503210729 69 0.0 0.0 0.00 0.00 0.00 34 1011.7
20260503205726 69 0.0 0.0 0.00 0.00 0.00 34 1011.8
20260503204724 70 0.0 0.0 0.00 0.00 0.00 33 1011.7
20260503203721 70 0.0 0.0 0.00 0.00 0.00 32 1011.9
20260503202718 70 0.0 0.0 0.00 0.00 0.00 32 1011.8
20260503201715 70 0.0 0.0 0.00 0.00 0.00 32 1011.7
20260503200727 70 0.0 0.0 0.00 0.00 0.00 31 1012.0
20260503194721 71 0.0 0.0 0.00 0.00 0.00 29 1012.0
20260503193718 71 0.0 0.0 0.00 0.00 0.00 28 1012.0
20260503192715 71 0.0 0.0 0.00 0.00 0.00 27 1012.0
20260503190725 72 0.0 0.0 0.00 0.00 0.00 25 1012.1
20260503185722 72 0.0 0.0 0.00 0.00 0.00 24 1012.1
20260503184719 73 0.0 0.0 0.00 0.00 0.00 24 1011.9
20260503183716 73 0.0 0.0 0.00 0.00 0.00 23 1011.9
20260503182728 73 0.0 0.0 0.00 0.00 0.00 24 1011.8
20260503181725 74 0.0 0.0 0.00 0.00 0.00 25 1011.7
20260503180722 75 0.0 0.0 0.00 0.00 0.00 25 1011.7
20260503175719 76 0.0 0.0 0.00 0.00 0.00 24 1011.6
20260503174717 77 0.0 0.0 0.00 0.00 0.00 23 1011.6